TimeCST,TemperatureF,Dew PointF,Humidity,Sea Level PressureIn,VisibilityMPH,Wind Direction,Wind SpeedMPH,Gust SpeedMPH,PrecipitationIn,Events,Conditions,WindDirDegrees,DateUTC
12:00 AM,66,65,96,29.86,12,ENE,2.3,,,,Scattered Clouds,70,2013-09-10 06:00:00
12:00 AM,66.2,64.4,94,30.03,6.2,ENE,2.3,-,N/A,,Mostly Cloudy,70,2013-09-10 06:00:00
1:00 AM,66.2,66.2,100,30.01,6.2,NNE,3.5,-,N/A,,Mostly Cloudy,30,2013-09-10 07:00:00
2:00 AM,66.2,64.4,94,30.01,6.2,North,3.5,-,N/A,,Scattered Clouds,10,2013-09-10 08:00:00
3:00 AM,66,65,94,29.87,12,ENE,3.5,,,,Mostly Cloudy,70,2013-09-10 09:00:00
4:00 AM,66.2,62.6,88,30.01,6.2,East,6.9,-,N/A,,Scattered Clouds,80,2013-09-10 10:00:00
5:00 AM,64.4,62.6,94,30.02,-9999.0,NE,4.6,-,N/A,,Clear,50,2013-09-10 11:00:00
6:00 AM,65,62,86,29.88,12,East,4.6,,,,Clear,80,2013-09-10 12:00:00
6:00 AM,64.4,62.6,94,30.02,-9999.0,East,4.6,-,N/A,,Clear,80,2013-09-10 12:00:00
7:00 AM,71.6,62.6,73,30.03,-9999.0,ENE,3.5,-,N/A,,Clear,70,2013-09-10 13:00:00
8:00 AM,75.2,64.4,69,30.05,-9999.0,ESE,2.3,-,N/A,,Clear,110,2013-09-10 14:00:00
9:00 AM,78,65,57,29.87,12,SW,3.5,,,,Scattered Clouds,220,2013-09-10 15:00:00
9:00 AM,78.8,66.2,65,30.06,6.2,SW,3.5,-,N/A,,Mostly Cloudy,220,2013-09-10 15:00:00
10:00 AM,82.4,64.4,54,30.05,6.2,SW,4.6,-,N/A,,Mostly Cloudy,230,2013-09-10 16:00:00
11:00 AM,82.4,66.2,58,30.03,6.2,WSW,5.8,-,N/A,,Mostly Cloudy,250,2013-09-10 17:00:00
12:00 PM,82,66,48,29.87,12,SW,8.1,,,,Partly Cloudy,220,2013-09-10 18:00:00
12:00 PM,82.4,66.2,58,30.02,6.2,SW,8.1,-,N/A,,Scattered Clouds,220,2013-09-10 18:00:00
1:00 PM,80.6,68.0,65,29.98,6.2,WSW,8.1,-,N/A,,Scattered Clouds,240,2013-09-10 19:00:00
3:00 PM,75,66,68,29.81,6,WSW,16.1,,,,Overcast,240,2013-09-10 21:00:00
3:00 PM,75.2,66.2,73,29.95,6.2,WSW,16.1,-,N/A,,Mostly Cloudy,240,2013-09-10 21:00:00
3:26 PM,73.4,68.0,83,29.95,3.1,WSW,12.7,-,N/A,Rain-Thunderstorm,Thunderstorms and Rain,240,2013-09-10 21:26:00
3:48 PM,69.8,68.0,94,29.97,0.9,SSW,9.2,-,N/A,Rain,Rain,210,2013-09-10 21:48:00
4:00 PM,69.8,68.0,94,29.96,0.7,SSW,11.5,-,N/A,Rain,Rain,200,2013-09-10 22:00:00
4:10 PM,69.8,68.0,94,29.96,3.1,SSW,9.2,-,N/A,Rain,Light Rain,210,2013-09-10 22:10:00
5:00 PM,68.0,68.0,100,29.97,3.1,WSW,5.8,-,N/A,Rain,Light Rain,240,2013-09-10 23:00:00
6:00 PM,69,68,94,29.88,5,NW,4.6,,,,Overcast,310,2013-09-11 00:00:00
6:00 PM,69.8,68.0,94,29.98,5.0,NW,4.6,-,N/A,Fog,Fog,310,2013-09-11 00:00:00
7:00 PM,69.8,68.0,94,30.01,6.2,WNW,5.8,-,N/A,,Mostly Cloudy,290,2013-09-11 01:00:00
8:00 PM,69.8,68.0,94,30.05,6.2,WNW,2.3,-,N/A,Rain,Light Rain,300,2013-09-11 02:00:00
9:00 PM,69,67,89,29.91,9,East,3.5,,,,Mostly Cloudy,100,2013-09-11 03:00:00
9:00 PM,69.8,66.2,88,30.06,6.2,North,3.5,-,N/A,,Mostly Cloudy,10,2013-09-11 03:00:00
10:00 PM,69.8,66.2,88,30.07,6.2,WNW,3.5,-,N/A,Fog,Patches of Fog,300,2013-09-11 04:00:00
11:00 PM,68.0,68.0,100,30.07,6.2,West,5.8,-,N/A,,Mostly Cloudy,270,2013-09-11 05:00:00